When you browse on this site, cookies collect data to enhance your experience and personalize the content and advertising you see.
Visit our Privacy Policy to learn more. By continuing to use the site, you agree to this use of cookies and data.
  • In Czech Republic
  • List of Countries
  • For 7 days
  • Water Temperature
  • Satellite Maps
  • Weather Map
  • Weather Widgets
  • user-avatar
    Login

    Hourly Weather Carmarthen

    Today, 21 January, Monday

    Time Temperature Precipitation Wind Pressure Humidity
    00:00 +1°C° 0 mm 2 mps 766 mmHg 89%
    01:00 +1°C° 0 mm 2 mps 766 mmHg 89%
    02:00 0°C° 0 mm 3 mps 765 mmHg 89%
    03:00 0°C° 0 mm 3 mps 765 mmHg 89%
    04:00 0°C° 0 mm 3 mps 765 mmHg 88%
    05:00 0°C° 0 mm 3 mps 764 mmHg 87%
    06:00 0°C° 0 mm 4 mps 764 mmHg 85%
    07:00 0°C° 0 mm 4 mps 763 mmHg 85%
    08:00 0°C° 0 mm 5 mps 762 mmHg 84%
    09:00 -1°C° 0 mm 6 mps 762 mmHg 84%
    10:00 0°C° 0 mm 7 mps 760 mmHg 80%
    11:00 +1°C° 0 mm 8 mps 759 mmHg 77%
    12:00 +1°C° 0 mm 9 mps 758 mmHg 74%
    13:00 +2°C° 0.4 mm 9 mps 756 mmHg 77%
    14:00 +2°C° 0.4 mm 10 mps 755 mmHg 81%
    15:00 +2°C° 0.4 mm 11 mps 753 mmHg 85%
    16:00 +2°C° 1 mm 11 mps 752 mmHg 87%
    17:00 +2°C° 1 mm 11 mps 751 mmHg 89%
    18:00 +2°C° 1 mm 11 mps 750 mmHg 91%
    19:00 +1°C° 0.3 mm 10 mps 749 mmHg 87%
    20:00 0°C° 0.3 mm 9 mps 749 mmHg 84%
    21:00 -1°C° 0.3 mm 9 mps 749 mmHg 80%
    22:00 -1°C° 0 mm 8 mps 749 mmHg 81%
    23:00 -1°C° 0 mm 8 mps 749 mmHg 82%

    Tomorrow, 22 January, Tuesday

    Time Temperature Precipitation Wind Pressure Humidity
    00:00 -2°C° 0 mm 8 mps 749 mmHg 83%
    01:00 -2°C° 0 mm 7 mps 749 mmHg 82%
    02:00 -2°C° 0 mm 7 mps 749 mmHg 82%
    03:00 -2°C° 0 mm 7 mps 748 mmHg 82%
    04:00 -2°C° 0 mm 7 mps 748 mmHg 84%
    05:00 -2°C° 0 mm 7 mps 747 mmHg 85%
    06:00 -2°C° 0 mm 6 mps 747 mmHg 87%
    07:00 -2°C° 0.2 mm 7 mps 747 mmHg 85%
    08:00 -1°C° 0.2 mm 7 mps 747 mmHg 82%
    09:00 -1°C° 0.2 mm 7 mps 747 mmHg 80%
    10:00 -1°C° 0 mm 8 mps 747 mmHg 76%
    11:00 0°C° 0 mm 8 mps 747 mmHg 73%
    12:00 0°C° 0 mm 8 mps 747 mmHg 69%
    13:00 0°C° 0 mm 8 mps 746 mmHg 68%
    14:00 0°C° 0 mm 8 mps 746 mmHg 67%
    15:00 0°C° 0 mm 7 mps 746 mmHg 66%
    16:00 -1°C° 0 mm 7 mps 747 mmHg 69%
    17:00 -1°C° 0 mm 7 mps 747 mmHg 71%
    18:00 -2°C° 0 mm 6 mps 747 mmHg 74%
    19:00 -2°C° 0 mm 6 mps 747 mmHg 75%
    20:00 -2°C° 0 mm 6 mps 747 mmHg 76%
    21:00 -2°C° 0 mm 6 mps 748 mmHg 77%
    22:00 -2°C° 0 mm 6 mps 748 mmHg 78%
    23:00 -2°C° 0 mm 6 mps 749 mmHg 78%

    Day after tomorrow, 23 January, Wednesday

    Time Temperature Precipitation Wind Pressure Humidity
    00:00 -2°C° 0 mm 6 mps 749 mmHg 79%
    01:00 -2°C° 0 mm 6 mps 749 mmHg 79%
    02:00 -2°C° 0 mm 6 mps 750 mmHg 79%
    03:00 -2°C° 0 mm 6 mps 750 mmHg 79%
    04:00 -1°C° 0 mm 5 mps 750 mmHg 80%
    05:00 -1°C° 0 mm 5 mps 751 mmHg 82%
    06:00 -1°C° 0 mm 5 mps 751 mmHg 83%
    07:00 -1°C° 0 mm 4 mps 752 mmHg 85%
    08:00 -2°C° 0 mm 4 mps 752 mmHg 87%
    09:00 -2°C° 0 mm 4 mps 753 mmHg 88%
    10:00 0°C° 0 mm 4 mps 753 mmHg 84%
    11:00 +1°C° 0 mm 4 mps 753 mmHg 79%
    12:00 +3°C° 0 mm 4 mps 754 mmHg 74%
    13:00 +3°C° 0 mm 4 mps 754 mmHg 76%
    14:00 +4°C° 0 mm 4 mps 754 mmHg 77%
    15:00 +4°C° 0 mm 4 mps 754 mmHg 78%
    16:00 +3°C° 0 mm 4 mps 754 mmHg 82%
    17:00 +3°C° 0 mm 3 mps 755 mmHg 86%
    18:00 +2°C° 0 mm 3 mps 755 mmHg 90%
    19:00 +2°C° 0.1 mm 3 mps 755 mmHg 91%
    20:00 +3°C° 0.1 mm 4 mps 755 mmHg 92%
    21:00 +3°C° 0.1 mm 4 mps 755 mmHg 93%
    22:00 +2°C° 0.3 mm 5 mps 755 mmHg 93%
    23:00 +2°C° 0.3 mm 5 mps 754 mmHg 94%

    24 January, Thursday

    Time Temperature Precipitation Wind Pressure Humidity
    00:00 +3°C° 0.3 mm 6 mps 754 mmHg 94%
    01:00 +3°C° 0.5 mm 6 mps 754 mmHg 95%
    02:00 +3°C° 0.5 mm 6 mps 754 mmHg 95%
    03:00 +4°C° 0.5 mm 6 mps 753 mmHg 96%
    04:00 +4°C° 0.1 mm 6 mps 753 mmHg 96%
    05:00 +5°C° 0.1 mm 6 mps 753 mmHg 95%
    06:00 +7°C° 0.1 mm 5 mps 753 mmHg 95%
    07:00 +7°C° 0.1 mm 5 mps 754 mmHg 95%
    08:00 +7°C° 0.1 mm 5 mps 754 mmHg 95%
    09:00 +7°C° 0.1 mm 6 mps 754 mmHg 95%
    10:00 +8°C° 0.1 mm 6 mps 754 mmHg 94%
    11:00 +8°C° 0.1 mm 7 mps 755 mmHg 93%
    12:00 +9°C° 0.1 mm 7 mps 755 mmHg 92%
    13:00 +9°C° 0.1 mm 7 mps 755 mmHg 92%
    14:00 +9°C° 0.1 mm 7 mps 755 mmHg 92%
    15:00 +9°C° 0.1 mm 7 mps 755 mmHg 92%
    16:00 +9°C° 0 mm 7 mps 756 mmHg 92%
    17:00 +9°C° 0 mm 7 mps 756 mmHg 93%
    18:00 +9°C° 0 mm 6 mps 757 mmHg 93%
    19:00 +9°C° 0 mm 6 mps 757 mmHg 93%
    20:00 +9°C° 0 mm 6 mps 757 mmHg 93%
    21:00 +9°C° 0 mm 6 mps 757 mmHg 93%
    22:00 +8°C° 0 mm 6 mps 757 mmHg 94%
    23:00 +8°C° 0 mm 6 mps 757 mmHg 94%

    25 January, Friday

    Time Temperature Precipitation Wind Pressure Humidity
    00:00 +8°C° 0 mm 6 mps 757 mmHg 94%
    01:00 +8°C° 0 mm 7 mps 757 mmHg 94%
    02:00 +8°C° 0 mm 7 mps 757 mmHg 93%
    03:00 +6°C° 0 mm 7 mps 756 mmHg 93%
    04:00 +6°C° 0 mm 7 mps 756 mmHg 93%
    05:00 +6°C° 0 mm 7 mps 756 mmHg 93%
    06:00 +5°C° 0 mm 6 mps 755 mmHg 93%
    07:00 +5°C° 0 mm 7 mps 755 mmHg 92%
    08:00 +5°C° 0 mm 7 mps 755 mmHg 91%
    09:00 +5°C° 0 mm 8 mps 754 mmHg 90%
    10:00 +6°C° 0 mm 8 mps 754 mmHg 88%
    11:00 +7°C° 0 mm 8 mps 753 mmHg 87%
    12:00 +9°C° 0 mm 8 mps 753 mmHg 86%
    13:00 +9°C° 0 mm 8 mps 752 mmHg 87%
    14:00 +10°C° 0 mm 8 mps 751 mmHg 88%
    15:00 +10°C° 0 mm 9 mps 750 mmHg 88%
    16:00 +10°C° 0.2 mm 8 mps 749 mmHg 89%
    17:00 +10°C° 0.2 mm 8 mps 749 mmHg 90%
    18:00 +9°C° 0.2 mm 8 mps 749 mmHg 90%
    19:00 +8°C° 1.2 mm 7 mps 748 mmHg 92%
    20:00 +8°C° 1.2 mm 7 mps 748 mmHg 93%
    21:00 +7°C° 1.2 mm 6 mps 748 mmHg 94%
    22:00 +5°C° 0.7 mm 6 mps 748 mmHg 92%
    23:00 +4°C° 0.7 mm 7 mps 748 mmHg 90%

    26 January, Saturday

    Time Temperature Precipitation Wind Pressure Humidity
    00:00 +4°C° 0.7 mm 7 mps 748 mmHg 87%
    01:00 +2°C° 0.2 mm 8 mps 748 mmHg 85%
    02:00 +2°C° 0.2 mm 8 mps 749 mmHg 83%
    03:00 +2°C° 0.2 mm 9 mps 749 mmHg 81%
    04:00 +2°C° 0 mm 8 mps 750 mmHg 81%
    05:00 +1°C° 0 mm 8 mps 750 mmHg 81%
    06:00 +1°C° 0 mm 8 mps 751 mmHg 81%
    07:00 +1°C° 0.1 mm 8 mps 751 mmHg 81%
    08:00 +1°C° 0.1 mm 8 mps 751 mmHg 82%
    09:00 +1°C° 0.1 mm 9 mps 752 mmHg 82%
    10:00 +1°C° 0 mm 9 mps 752 mmHg 78%
    11:00 +2°C° 0 mm 9 mps 752 mmHg 75%
    12:00 +3°C° 0 mm 9 mps 753 mmHg 71%
    13:00 +3°C° 0.1 mm 9 mps 753 mmHg 70%
    14:00 +3°C° 0.1 mm 9 mps 753 mmHg 69%
    15:00 +2°C° 0.1 mm 9 mps 753 mmHg 68%
    16:00 +2°C° 0.1 mm 8 mps 753 mmHg 70%
    17:00 +1°C° 0.1 mm 8 mps 753 mmHg 72%
    18:00 0°C° 0.1 mm 8 mps 753 mmHg 74%
    19:00 0°C° 0 mm 8 mps 753 mmHg 75%
    20:00 0°C° 0 mm 7 mps 753 mmHg 77%
    21:00 -1°C° 0 mm 7 mps 753 mmHg 78%
    22:00 -1°C° 0 mm 7 mps 753 mmHg 80%
    23:00 -1°C° 0 mm 6 mps 753 mmHg 83%
    Show more